| time (UTC) | temp F | wind direction | speed MPH | gust MPH | rain 1hr in | rain 24hr in | rain mn in | humidity % | barometer mb |
| 20260903221206 | 91 | 9 | 1.0 | 5.0 | 0.00 | 0.08 | 0.00 | 21 | 1015.2 |
| 20260903220706 | 91 | 39 | 2.0 | 8.0 | 0.00 | 0.08 | 0.00 | 19 | 1015.3 |
| 20260903220206 | 91 | 61 | 1.0 | 3.0 | 0.00 | 0.08 | 0.00 | 18 | 1015.3 |
| 20260903215705 | 91 | 89 | 1.0 | 5.0 | 0.00 | 0.08 | 0.00 | 20 | 1015.4 |
| 20260903214705 | 91 | 42 | 3.0 | 8.0 | 0.00 | 0.08 | 0.00 | 19 | 1015.4 |
| 20260903214205 | 91 | 38 | 2.0 | 7.0 | 0.00 | 0.08 | 0.00 | 19 | 1015.5 |
| 20260903213706 | 91 | 65 | 2.0 | 5.0 | 0.00 | 0.08 | 0.00 | 19 | 1015.6 |
| 20260903212706 | 91 | 67 | 2.0 | 9.0 | 0.00 | 0.08 | 0.00 | 20 | 1015.6 |
| 20260903211705 | 91 | 147 | 2.0 | 5.0 | 0.00 | 0.08 | 0.00 | 21 | 1015.7 |
| 20260903210706 | 90 | 51 | 2.0 | 9.0 | 0.00 | 0.08 | 0.00 | 19 | 1015.8 |
| 20260903210205 | 91 | 107 | 2.0 | 6.0 | 0.00 | 0.08 | 0.00 | 21 | 1015.9 |
| 20260903204205 | 90 | 28 | 2.0 | 6.0 | 0.00 | 0.08 | 0.00 | 20 | 1016.1 |
| 20260903203705 | 90 | 118 | 2.0 | 12.0 | 0.00 | 0.08 | 0.00 | 21 | 1016.2 |
| 20260903203205 | 90 | 97 | 0.0 | 3.0 | 0.00 | 0.08 | 0.00 | 25 | 1016.3 |
| 20260903202205 | 89 | 78 | 2.0 | 5.0 | 0.00 | 0.08 | 0.00 | 22 | 1016.4 |
| 20260903201205 | 89 | 38 | 2.0 | 7.0 | 0.00 | 0.08 | 0.00 | 24 | 1016.4 |
| 20260903200705 | 89 | 5 | 3.0 | 9.0 | 0.00 | 0.08 | 0.00 | 23 | 1016.4 |
| 20260903200205 | 88 | 61 | 2.0 | 5.0 | 0.00 | 0.08 | 0.00 | 23 | 1016.4 |
| 20260903195705 | 88 | 86 | 2.0 | 6.0 | 0.00 | 0.08 | 0.00 | 23 | 1016.5 |
| 20260903195205 | 88 | 117 | 3.0 | 9.0 | 0.00 | 0.08 | 0.00 | 22 | 1016.5 |
| 20260903194705 | 88 | 53 | 3.0 | 10.0 | 0.00 | 0.08 | 0.00 | 22 | 1016.6 |
| 20260903194206 | 88 | 42 | 2.0 | 6.0 | 0.00 | 0.08 | 0.00 | 22 | 1016.6 |
| 20260903193705 | 88 | 106 | 2.0 | 7.0 | 0.00 | 0.08 | 0.00 | 24 | 1016.6 |
| 20260903193205 | 88 | 36 | 3.0 | 6.0 | 0.00 | 0.08 | 0.00 | 22 | 1016.7 |
| 20260903192705 | 88 | 118 | 1.0 | 3.0 | 0.00 | 0.08 | 0.00 | 23 | 1016.8 |
| 20260903192205 | 88 | 72 | 0.0 | 3.0 | 0.00 | 0.08 | 0.00 | 24 | 1016.9 |
| 20260903191706 | 87 | 76 | 1.0 | 3.0 | 0.00 | 0.08 | 0.00 | 23 | 1017.0 |
| 20260903191205 | 87 | 77 | 1.0 | 7.0 | 0.00 | 0.08 | 0.00 | 23 | 1017.1 |
| 20260903190705 | 87 | 49 | 2.0 | 9.0 | 0.00 | 0.08 | 0.00 | 23 | 1017.1 |
| 20260903185705 | 88 | 103 | 2.0 | 3.0 | 0.00 | 0.08 | 0.00 | 23 | 1017.2 |
| 20260903184705 | 87 | 157 | 0.0 | 3.0 | 0.00 | 0.08 | 0.00 | 26 | 1017.3 |
| 20260903184205 | 87 | 126 | 0.0 | 3.0 | 0.00 | 0.08 | 0.00 | 24 | 1017.4 |
| 20260903183705 | 87 | 102 | 2.0 | 6.0 | 0.00 | 0.08 | 0.00 | 24 | 1017.5 |
| 20260903183205 | 87 | 151 | 3.0 | 6.0 | 0.00 | 0.08 | 0.00 | 24 | 1017.6 |
| 20260903182205 | 86 | 168 | 2.0 | 7.0 | 0.00 | 0.08 | 0.00 | 26 | 1017.7 |
| 20260903181704 | 86 | 124 | 1.0 | 5.0 | 0.00 | 0.08 | 0.00 | 26 | 1017.8 |
| 20260903180705 | 85 | 341 | 1.0 | 3.0 | 0.00 | 0.08 | 0.00 | 26 | 1017.8 |
| 20260903180205 | 85 | 79 | 1.0 | 8.0 | 0.00 | 0.08 | 0.00 | 25 | 1017.9 |
| 20260903175705 | 85 | 150 | 0.0 | 3.0 | 0.00 | 0.08 | 0.00 | 27 | 1018.0 |
| 20260903175205 | 85 | 102 | 2.0 | 6.0 | 0.00 | 0.08 | 0.00 | 25 | 1018.0 |
| 20260903174205 | 85 | 120 | 2.0 | 5.0 | 0.00 | 0.08 | 0.00 | 26 | 1018.1 |
| 20260903173705 | 85 | 113 | 1.0 | 3.0 | 0.00 | 0.08 | 0.00 | 25 | 1018.1 |
| 20260903173205 | 84 | 168 | 1.0 | 6.0 | 0.00 | 0.08 | 0.00 | 27 | 1018.1 |
| 20260903172705 | 84 | 96 | 1.0 | 3.0 | 0.00 | 0.08 | 0.00 | 28 | 1018.2 |
| 20260903171705 | 83 | 121 | 1.0 | 3.0 | 0.00 | 0.08 | 0.00 | 30 | 1018.3 |
| 20260903171204 | 83 | 101 | 2.0 | 5.0 | 0.00 | 0.08 | 0.00 | 28 | 1018.3 |
| 20260903170205 | 82 | 137 | 1.0 | 3.0 | 0.00 | 0.08 | 0.00 | 32 | 1018.3 |
| 20260903165705 | 81 | 175 | 1.0 | 5.0 | 0.00 | 0.08 | 0.00 | 34 | 1018.4 |
| 20260903165205 | 81 | 125 | 1.0 | 2.0 | 0.00 | 0.08 | 0.00 | 35 | 1018.4 |
| 20260903164705 | 80 | 85 | 1.0 | 3.0 | 0.00 | 0.08 | 0.00 | 35 | 1018.4 |
| 20260903163705 | 79 | 96 | 1.0 | 3.0 | 0.00 | 0.08 | 0.00 | 34 | 1018.4 |
| 20260903163205 | 79 | 111 | 1.0 | 3.0 | 0.00 | 0.08 | 0.00 | 38 | 1018.4 |
| 20260903162705 | 78 | 77 | 0.0 | 1.0 | 0.00 | 0.08 | 0.00 | 38 | 1018.4 |
| 20260903162204 | 77 | 77 | 1.0 | 2.0 | 0.00 | 0.08 | 0.00 | 38 | 1018.5 |
| 20260903161704 | 77 | 75 | 0.0 | 3.0 | 0.00 | 0.08 | 0.00 | 39 | 1018.5 |
| 20260903161205 | 76 | 143 | 0.0 | 2.0 | 0.00 | 0.08 | 0.00 | 43 | 1018.5 |
| 20260903160705 | 75 | 55 | 1.0 | 2.0 | 0.00 | 0.08 | 0.00 | 41 | 1018.4 |
| 20260903160205 | 74 | 45 | 1.0 | 3.0 | 0.00 | 0.08 | 0.00 | 41 | 1018.5 |
| 20260903155704 | 73 | 78 | 0.0 | 2.0 | 0.00 | 0.08 | 0.00 | 44 | 1018.5 |
| 20260903155205 | 72 | 78 | 0.0 | 2.0 | 0.00 | 0.08 | 0.00 | 45 | 1018.5 |
| 20260903154204 | 70 | 174 | 0.0 | 0.0 | 0.00 | 0.08 | 0.00 | 51 | 1018.5 |
| 20260903153705 | 69 | 174 | 0.0 | 0.0 | 0.00 | 0.08 | 0.00 | 53 | 1018.5 |
| 20260903152705 | 68 | 174 | 0.0 | 2.0 | 0.00 | 0.08 | 0.00 | 60 | 1018.6 |
| 20260903152205 | 68 | 174 | 0.0 | 2.0 | 0.00 | 0.08 | 0.00 | 62 | 1018.5 |
| 20260903151704 | 67 | 174 | 1.0 | 2.0 | 0.00 | 0.08 | 0.00 | 64 | 1018.6 |
| 20260903151205 | 66 | 174 | 0.0 | 1.0 | 0.00 | 0.08 | 0.00 | 67 | 1018.6 |
| 20260903150704 | 65 | 174 | 0.0 | 1.0 | 0.00 | 0.08 | 0.00 | 65 | 1018.6 |
| 20260903150205 | 64 | 174 | 0.0 | 0.0 | 0.00 | 0.08 | 0.00 | 65 | 1018.7 |
| 20260903145705 | 64 | 174 | 0.0 | 1.0 | 0.00 | 0.08 | 0.00 | 68 | 1018.7 |
| 20260903145205 | 63 | 174 | 0.0 | 0.0 | 0.00 | 0.08 | 0.00 | 69 | 1018.8 |
| 20260903144705 | 62 | 174 | 0.0 | 0.0 | 0.00 | 0.08 | 0.00 | 69 | 1018.8 |
| 20260903143704 | 61 | 174 | 0.0 | 0.0 | 0.00 | 0.08 | 0.00 | 75 | 1018.8 |
| 20260903143205 | 60 | 174 | 0.0 | 0.0 | 0.00 | 0.08 | 0.00 | 77 | 1018.8 |
| 20260903142705 | 60 | 174 | 0.0 | 1.0 | 0.00 | 0.08 | 0.00 | 77 | 1018.8 |
| 20260903142205 | 59 | 174 | 0.0 | 2.0 | 0.00 | 0.08 | 0.00 | 81 | 1018.9 |
| 20260903141705 | 58 | 174 | 0.0 | 2.0 | 0.00 | 0.08 | 0.00 | 85 | 1018.9 |
| 20260903141204 | 57 | 174 | 0.0 | 1.0 | 0.00 | 0.08 | 0.00 | 87 | 1018.8 |
| 20260903140204 | 55 | 174 | 0.0 | 1.0 | 0.00 | 0.08 | 0.00 | 89 | 1018.7 |
| 20260903135705 | 55 | 174 | 0.0 | 1.0 | 0.00 | 0.08 | 0.00 | 90 | 1018.7 |
| 20260903135205 | 55 | 174 | 0.0 | 2.0 | 0.00 | 0.08 | 0.00 | 90 | 1018.7 |
| 20260903134205 | 54 | 174 | 0.0 | 0.0 | 0.00 | 0.08 | 0.00 | 90 | 1018.8 |
| 20260903133705 | 54 | 174 | 0.0 | 0.0 | 0.00 | 0.08 | 0.00 | 90 | 1018.7 |
| 20260903133205 | 53 | 174 | 0.0 | 0.0 | 0.00 | 0.08 | 0.00 | 90 | 1018.5 |
| 20260903132204 | 53 | 174 | 0.0 | 1.0 | 0.00 | 0.08 | 0.00 | 90 | 1018.4 |
| 20260903131705 | 53 | 174 | 1.0 | 2.0 | 0.00 | 0.08 | 0.00 | 90 | 1018.5 |
| 20260903131205 | 53 | 174 | 0.0 | 1.0 | 0.00 | 0.08 | 0.00 | 90 | 1018.5 |
| 20260903130204 | 53 | 174 | 0.0 | 1.0 | 0.00 | 0.08 | 0.00 | 90 | 1018.4 |
| 20260903125704 | 53 | 174 | 0.0 | 1.0 | 0.00 | 0.08 | 0.00 | 90 | 1018.4 |
| 20260903125204 | 53 | 174 | 0.0 | 0.0 | 0.00 | 0.08 | 0.00 | 90 | 1018.3 |
| 20260903124705 | 53 | 174 | 0.0 | 0.0 | 0.00 | 0.08 | 0.00 | 90 | 1018.2 |
| 20260903124205 | 53 | 174 | 0.0 | 0.0 | 0.00 | 0.08 | 0.00 | 90 | 1018.1 |
| 20260903123704 | 53 | 174 | 0.0 | 0.0 | 0.00 | 0.08 | 0.00 | 90 | 1018.1 |
| 20260903123205 | 53 | 174 | 0.0 | 0.0 | 0.00 | 0.08 | 0.00 | 90 | 1018.1 |
| 20260903122704 | 53 | 174 | 0.0 | 1.0 | 0.00 | 0.08 | 0.00 | 90 | 1018.0 |
| 20260903122205 | 53 | 174 | 0.0 | 0.0 | 0.00 | 0.08 | 0.00 | 90 | 1018.0 |
| 20260903121204 | 53 | 174 | 0.0 | 0.0 | 0.00 | 0.08 | 0.00 | 90 | 1018.0 |
| 20260903120705 | 53 | 174 | 0.0 | 0.0 | 0.00 | 0.08 | 0.00 | 90 | 1018.0 |
| 20260903115704 | 53 | 174 | 0.0 | 1.0 | 0.00 | 0.08 | 0.00 | 90 | 1017.9 |
| 20260903115205 | 53 | 174 | 0.0 | 1.0 | 0.00 | 0.08 | 0.00 | 90 | 1017.8 |
| 20260903114704 | 53 | 174 | 0.0 | 0.0 | 0.00 | 0.08 | 0.00 | 90 | 1017.8 |
| 20260903114205 | 53 | 174 | 0.0 | 0.0 | 0.00 | 0.08 | 0.00 | 90 | 1017.8 |
| 20260903113704 | 53 | 174 | 0.0 | 0.0 | 0.00 | 0.08 | 0.00 | 90 | 1017.8 |
| 20260903113204 | 53 | 174 | 0.0 | 1.0 | 0.00 | 0.08 | 0.00 | 90 | 1017.7 |
| 20260903112705 | 53 | 174 | 0.0 | 1.0 | 0.00 | 0.08 | 0.00 | 90 | 1017.6 |
| 20260903111704 | 54 | 174 | 0.0 | 0.0 | 0.00 | 0.08 | 0.00 | 90 | 1017.7 |
| 20260903111204 | 54 | 174 | 0.0 | 1.0 | 0.00 | 0.08 | 0.00 | 89 | 1017.7 |
| 20260903110704 | 54 | 174 | 0.0 | 0.0 | 0.00 | 0.08 | 0.00 | 89 | 1017.8 |
| 20260903110204 | 54 | 174 | 0.0 | 0.0 | 0.00 | 0.08 | 0.00 | 89 | 1017.7 |
| 20260903105704 | 54 | 174 | 0.0 | 0.0 | 0.00 | 0.08 | 0.00 | 89 | 1017.8 |
| 20260903104705 | 55 | 174 | 0.0 | 0.0 | 0.00 | 0.08 | 0.00 | 89 | 1017.7 |
| 20260903104205 | 55 | 174 | 0.0 | 0.0 | 0.00 | 0.08 | 0.00 | 89 | 1017.7 |
| 20260903103704 | 55 | 174 | 0.0 | 0.0 | 0.00 | 0.08 | 0.00 | 90 | 1017.7 |
| 20260903103205 | 55 | 174 | 0.0 | 0.0 | 0.00 | 0.08 | 0.00 | 90 | 1017.8 |
| 20260903102704 | 55 | 174 | 0.0 | 0.0 | 0.00 | 0.08 | 0.00 | 89 | 1017.8 |
| 20260903102205 | 55 | 174 | 0.0 | 0.0 | 0.00 | 0.08 | 0.00 | 89 | 1017.7 |
| 20260903101204 | 55 | 174 | 0.0 | 0.0 | 0.00 | 0.08 | 0.00 | 89 | 1017.7 |
| 20260903100704 | 55 | 174 | 0.0 | 0.0 | 0.00 | 0.08 | 0.00 | 89 | 1017.7 |
| 20260903100204 | 56 | 174 | 0.0 | 1.0 | 0.00 | 0.08 | 0.00 | 89 | 1017.7 |
| 20260903095704 | 56 | 174 | 0.0 | 0.0 | 0.00 | 0.08 | 0.00 | 89 | 1017.7 |
| 20260903095205 | 56 | 174 | 0.0 | 0.0 | 0.00 | 0.08 | 0.00 | 89 | 1017.7 |
| 20260903094704 | 56 | 174 | 0.0 | 0.0 | 0.00 | 0.08 | 0.00 | 89 | 1017.8 |
| 20260903094204 | 56 | 174 | 0.0 | 0.0 | 0.00 | 0.08 | 0.00 | 89 | 1017.7 |
| 20260903093705 | 56 | 174 | 0.0 | 0.0 | 0.00 | 0.08 | 0.00 | 89 | 1017.7 |
| 20260903093204 | 56 | 174 | 0.0 | 2.0 | 0.00 | 0.08 | 0.00 | 89 | 1017.7 |
| 20260903092704 | 56 | 174 | 0.0 | 2.0 | 0.00 | 0.08 | 0.00 | 89 | 1017.7 |
| 20260903092204 | 57 | 174 | 0.0 | 1.0 | 0.00 | 0.08 | 0.00 | 89 | 1017.7 |
| 20260903091704 | 57 | 174 | 0.0 | 0.0 | 0.00 | 0.08 | 0.00 | 89 | 1017.7 |
| 20260903091204 | 57 | 174 | 0.0 | 0.0 | 0.00 | 0.08 | 0.00 | 89 | 1017.8 |
| 20260903090704 | 57 | 174 | 0.0 | 0.0 | 0.00 | 0.08 | 0.00 | 89 | 1017.8 |
| 20260903090204 | 57 | 174 | 0.0 | 1.0 | 0.00 | 0.08 | 0.00 | 89 | 1017.8 |
| 20260903085704 | 57 | 174 | 0.0 | 2.0 | 0.00 | 0.08 | 0.00 | 89 | 1017.8 |
| 20260903085205 | 57 | 174 | 0.0 | 0.0 | 0.00 | 0.08 | 0.00 | 89 | 1017.9 |
| 20260903084705 | 57 | 174 | 0.0 | 0.0 | 0.00 | 0.08 | 0.00 | 89 | 1017.9 |
| 20260903084204 | 57 | 174 | 0.0 | 0.0 | 0.00 | 0.08 | 0.00 | 89 | 1017.8 |
| 20260903083704 | 58 | 174 | 0.0 | 0.0 | 0.00 | 0.08 | 0.00 | 89 | 1017.8 |
| 20260903083204 | 58 | 174 | 0.0 | 1.0 | 0.00 | 0.08 | 0.00 | 89 | 1017.8 |
| 20260903082704 | 58 | 174 | 0.0 | 1.0 | 0.00 | 0.08 | 0.00 | 90 | 1017.7 |
| 20260903082205 | 58 | 174 | 0.0 | 1.0 | 0.00 | 0.08 | 0.00 | 90 | 1017.8 |
| 20260903081704 | 58 | 174 | 0.0 | 1.0 | 0.00 | 0.08 | 0.00 | 90 | 1017.8 |
| 20260903081204 | 58 | 174 | 0.0 | 1.0 | 0.00 | 0.08 | 0.00 | 90 | 1017.7 |
| 20260903080204 | 58 | 174 | 0.0 | 2.0 | 0.00 | 0.08 | 0.00 | 90 | 1017.7 |
| 20260903075704 | 59 | 247 | 1.0 | 2.0 | 0.00 | 0.08 | 0.00 | 90 | 1017.7 |
| 20260903074704 | 59 | 247 | 0.0 | 0.0 | 0.00 | 0.08 | 0.00 | 90 | 1017.8 |
| 20260903074204 | 59 | 247 | 0.0 | 0.0 | 0.00 | 0.08 | 0.00 | 90 | 1017.9 |
| 20260903073704 | 59 | 247 | 0.0 | 0.0 | 0.00 | 0.08 | 0.00 | 90 | 1017.9 |
| 20260903073204 | 59 | 247 | 0.0 | 0.0 | 0.00 | 0.08 | 0.00 | 90 | 1017.9 |
| 20260903072704 | 59 | 247 | 0.0 | 0.0 | 0.00 | 0.08 | 0.00 | 90 | 1018.0 |
| 20260903072205 | 60 | 247 | 0.0 | 0.0 | 0.00 | 0.08 | 0.00 | 90 | 1018.0 |
| 20260903071704 | 60 | 247 | 0.0 | 0.0 | 0.00 | 0.08 | 0.00 | 90 | 1018.0 |
| 20260903071204 | 60 | 247 | 0.0 | 0.0 | 0.00 | 0.08 | 0.00 | 90 | 1018.0 |
| 20260903070704 | 60 | 247 | 0.0 | 1.0 | 0.00 | 0.08 | 0.00 | 90 | 1018.1 |
| 20260903065704 | 60 | 247 | 0.0 | 1.0 | 0.00 | 0.08 | 0.00 | 90 | 1018.2 |
| 20260903065205 | 60 | 247 | 0.0 | 1.0 | 0.00 | 0.08 | 0.00 | 90 | 1018.3 |
| 20260903064704 | 61 | 247 | 0.0 | 0.0 | 0.00 | 0.08 | 0.00 | 90 | 1018.3 |
| 20260903064204 | 61 | 247 | 0.0 | 0.0 | 0.00 | 0.08 | 0.00 | 91 | 1018.3 |
| 20260903063704 | 61 | 247 | 0.0 | 0.0 | 0.00 | 0.08 | 0.00 | 91 | 1018.3 |
| 20260903063204 | 61 | 247 | 0.0 | 0.0 | 0.00 | 0.08 | 0.00 | 91 | 1018.3 |
| 20260903062704 | 61 | 247 | 0.0 | 1.0 | 0.00 | 0.08 | 0.00 | 91 | 1018.2 |
| 20260903062204 | 61 | 247 | 0.0 | 0.0 | 0.00 | 0.08 | 0.00 | 90 | 1018.0 |
| 20260903061704 | 61 | 247 | 0.0 | 0.0 | 0.00 | 0.08 | 0.00 | 90 | 1018.1 |
| 20260903061204 | 61 | 247 | 0.0 | 0.0 | 0.00 | 0.08 | 0.00 | 90 | 1018.1 |
| 20260903060705 | 61 | 247 | 0.0 | 0.0 | 0.00 | 0.08 | 0.00 | 90 | 1018.1 |
| 20260903060204 | 61 | 247 | 0.0 | 0.0 | 0.00 | 0.08 | 0.00 | 90 | 1018.1 |
| 20260903055703 | 61 | 247 | 0.0 | 0.0 | 0.00 | 0.08 | 0.08 | 90 | 1018.2 |
| 20260903055203 | 61 | 247 | 0.0 | 0.0 | 0.00 | 0.08 | 0.08 | 90 | 1018.3 |
| 20260903054704 | 61 | 247 | 0.0 | 0.0 | 0.00 | 0.08 | 0.08 | 90 | 1018.3 |
| 20260903053704 | 62 | 247 | 0.0 | 1.0 | 0.00 | 0.08 | 0.08 | 90 | 1018.2 |
| 20260903053204 | 62 | 247 | 0.0 | 0.0 | 0.00 | 0.08 | 0.08 | 90 | 1018.1 |
| 20260903052704 | 62 | 247 | 0.0 | 0.0 | 0.00 | 0.08 | 0.08 | 90 | 1018.2 |
| 20260903052204 | 62 | 247 | 0.0 | 1.0 | 0.00 | 0.08 | 0.08 | 90 | 1018.1 |
| 20260903051204 | 62 | 247 | 0.0 | 0.0 | 0.00 | 0.08 | 0.08 | 89 | 1018.2 |
| 20260903050703 | 62 | 247 | 0.0 | 1.0 | 0.00 | 0.08 | 0.08 | 89 | 1018.2 |
| 20260903050204 | 62 | 247 | 0.0 | 2.0 | 0.00 | 0.08 | 0.08 | 88 | 1018.0 |
| 20260903045704 | 62 | 247 | 0.0 | 0.0 | 0.00 | 0.08 | 0.08 | 88 | 1017.9 |
| 20260903045204 | 62 | 247 | 0.0 | 0.0 | 0.00 | 0.08 | 0.08 | 88 | 1018.1 |
| 20260903044704 | 62 | 247 | 0.0 | 0.0 | 0.00 | 0.08 | 0.08 | 88 | 1018.4 |
| 20260903044204 | 62 | 247 | 0.0 | 0.0 | 0.00 | 0.08 | 0.08 | 87 | 1018.5 |
| 20260903043704 | 62 | 247 | 0.0 | 0.0 | 0.00 | 0.08 | 0.08 | 87 | 1018.6 |
| 20260903043204 | 63 | 247 | 0.0 | 0.0 | 0.00 | 0.08 | 0.08 | 86 | 1018.7 |
| 20260903042704 | 63 | 247 | 0.0 | 0.0 | 0.00 | 0.08 | 0.08 | 86 | 1018.8 |
| 20260903042204 | 63 | 247 | 0.0 | 0.0 | 0.00 | 0.08 | 0.08 | 85 | 1018.7 |
| 20260903041703 | 63 | 247 | 0.0 | 1.0 | 0.00 | 0.08 | 0.08 | 84 | 1018.5 |
| 20260903041204 | 63 | 247 | 0.0 | 0.0 | 0.00 | 0.08 | 0.08 | 83 | 1018.6 |
| 20260903040703 | 63 | 247 | 0.0 | 0.0 | 0.00 | 0.08 | 0.08 | 83 | 1018.6 |
| 20260903040204 | 64 | 247 | 0.0 | 0.0 | 0.00 | 0.08 | 0.08 | 82 | 1018.5 |
| 20260903035704 | 64 | 247 | 0.0 | 0.0 | 0.00 | 0.08 | 0.08 | 82 | 1018.5 |
| 20260903035203 | 64 | 247 | 0.0 | 0.0 | 0.00 | 0.08 | 0.08 | 81 | 1018.5 |
| 20260903034704 | 64 | 247 | 0.0 | 1.0 | 0.00 | 0.08 | 0.08 | 80 | 1018.5 |
| 20260903034204 | 65 | 247 | 0.0 | 0.0 | 0.00 | 0.08 | 0.08 | 79 | 1018.6 |
| 20260903033704 | 65 | 247 | 0.0 | 2.0 | 0.05 | 0.08 | 0.08 | 78 | 1018.5 |
| 20260903033204 | 66 | 247 | 1.0 | 3.0 | 0.08 | 0.08 | 0.08 | 76 | 1018.5 |
| 20260903032203 | 67 | 47 | 0.0 | 0.0 | 0.08 | 0.08 | 0.08 | 73 | 1018.3 |
| 20260903031704 | 68 | 47 | 0.0 | 0.0 | 0.08 | 0.08 | 0.08 | 73 | 1018.1 |
| 20260903031204 | 68 | 47 | 0.0 | 2.0 | 0.08 | 0.08 | 0.08 | 72 | 1018.0 |
| 20260903030204 | 70 | 243 | 0.0 | 0.0 | 0.08 | 0.08 | 0.08 | 69 | 1018.3 |
| 20260903025703 | 71 | 243 | 0.0 | 1.0 | 0.08 | 0.08 | 0.08 | 68 | 1018.4 |
| 20260903025203 | 72 | 242 | 0.0 | 0.0 | 0.08 | 0.08 | 0.08 | 64 | 1018.4 |
| 20260903024703 | 74 | 242 | 0.0 | 0.0 | 0.08 | 0.08 | 0.08 | 63 | 1018.5 |
| 20260903024203 | 75 | 242 | 0.0 | 1.0 | 0.08 | 0.08 | 0.08 | 60 | 1018.7 |
| 20260903023703 | 76 | 242 | 0.0 | 3.0 | 0.03 | 0.03 | 0.03 | 52 | 1018.7 |
| 20260903023203 | 77 | 240 | 1.0 | 5.0 | 0.00 | 0.00 | 0.00 | 41 | 1018.5 |
| 20260903022705 | 77 | 207 | 1.0 | 3.0 | 0.00 | 0.00 | 0.00 | 40 | 1018.1 |
| 20260903022204 | 77 | 90 | 0.0 | 2.0 | 0.00 | 0.00 | 0.00 | 39 | 1017.6 |
| 20260903021706 | 77 | 90 | 0.0 | 3.0 | 0.00 | 0.00 | 0.00 | 38 | 1017.3 |
| 20260903021205 | 77 | 90 | 1.0 | 3.0 | 0.00 | 0.00 | 0.00 | 37 | 1017.3 |
| 20260903020706 | 78 | 56 | 2.0 | 5.0 | 0.00 | 0.00 | 0.00 | 37 | 1017.3 |
| 20260903015706 | 78 | 60 | 0.0 | 5.0 | 0.00 | 0.00 | 0.00 | 36 | 1016.9 |
| 20260903015205 | 78 | 17 | 1.0 | 3.0 | 0.00 | 0.00 | 0.00 | 35 | 1016.9 |
| 20260903014705 | 78 | 7 | 2.0 | 7.0 | 0.00 | 0.00 | 0.00 | 35 | 1017.0 |
| 20260903014205 | 78 | 358 | 2.0 | 7.0 | 0.00 | 0.00 | 0.00 | 34 | 1016.9 |
| 20260903013706 | 78 | 10 | 3.0 | 9.0 | 0.00 | 0.00 | 0.00 | 34 | 1016.8 |
| 20260903013205 | 78 | 73 | 2.0 | 3.0 | 0.00 | 0.00 | 0.00 | 34 | 1016.8 |
| 20260903012205 | 79 | 10 | 1.0 | 5.0 | 0.00 | 0.00 | 0.00 | 34 | 1016.8 |
| 20260903011705 | 79 | 9 | 3.0 | 7.0 | 0.00 | 0.00 | 0.00 | 33 | 1016.8 |
| 20260903011206 | 79 | 19 | 3.0 | 6.0 | 0.00 | 0.00 | 0.00 | 33 | 1016.7 |
| 20260903010705 | 79 | 355 | 2.0 | 8.0 | 0.00 | 0.00 | 0.00 | 33 | 1016.8 |
| 20260903010206 | 80 | 18 | 3.0 | 9.0 | 0.00 | 0.00 | 0.00 | 32 | 1016.7 |
| 20260903005705 | 80 | 23 | 1.0 | 6.0 | 0.00 | 0.00 | 0.00 | 32 | 1016.7 |
| 20260903005206 | 80 | 3 | 2.0 | 3.0 | 0.00 | 0.00 | 0.00 | 32 | 1016.6 |
| 20260903004205 | 81 | 5 | 0.0 | 1.0 | 0.00 | 0.00 | 0.00 | 32 | 1016.6 |
| 20260903003706 | 81 | 5 | 1.0 | 3.0 | 0.00 | 0.00 | 0.00 | 31 | 1016.5 |
| 20260903003206 | 82 | 0 | 1.0 | 3.0 | 0.00 | 0.00 | 0.00 | 31 | 1016.5 |
| 20260903002705 | 82 | 9 | 0.0 | 3.0 | 0.00 | 0.00 | 0.00 | 31 | 1016.4 |
| 20260903001705 | 83 | 344 | 0.0 | 1.0 | 0.00 | 0.00 | 0.00 | 31 | 1016.5 |
| 20260903001206 | 83 | 344 | 1.0 | 3.0 | 0.00 | 0.00 | 0.00 | 28 | 1016.5 |
| 20260903000706 | 83 | 43 | 0.0 | 3.0 | 0.00 | 0.00 | 0.00 | 30 | 1016.5 |
| 20260903000205 | 84 | 18 | 0.0 | 0.0 | 0.00 | 0.00 | 0.00 | 29 | 1016.5 |
| 20260902235706 | 84 | 18 | 0.0 | 6.0 | 0.00 | 0.00 | 0.00 | 28 | 1016.5 |
| 20260902235206 | 85 | 280 | 1.0 | 5.0 | 0.00 | 0.00 | 0.00 | 28 | 1016.4 |
| 20260902234706 | 85 | 32 | 1.0 | 3.0 | 0.00 | 0.00 | 0.00 | 28 | 1016.4 |
| 20260902234206 | 85 | 355 | 0.0 | 5.0 | 0.00 | 0.00 | 0.00 | 29 | 1016.5 |
| 20260902233205 | 85 | 354 | 2.0 | 5.0 | 0.00 | 0.00 | 0.00 | 29 | 1016.6 |
| 20260902232705 | 85 | 293 | 1.0 | 8.0 | 0.00 | 0.00 | 0.00 | 28 | 1016.6 |
| 20260902232205 | 85 | 262 | 2.0 | 8.0 | 0.00 | 0.00 | 0.00 | 28 | 1016.6 |
| 20260902231706 | 86 | 337 | 1.0 | 9.0 | 0.00 | 0.00 | 0.00 | 27 | 1016.6 |
| 20260902231206 | 86 | 347 | 6.0 | 12.0 | 0.00 | 0.00 | 0.00 | 25 | 1016.6 |
| 20260902230706 | 87 | 5 | 0.0 | 2.0 | 0.00 | 0.00 | 0.00 | 27 | 1016.5 |
| 20260902230205 | 87 | 5 | 0.0 | 1.0 | 0.00 | 0.00 | 0.00 | 26 | 1016.4 |
| 20260902225705 | 87 | 5 | 0.0 | 0.0 | 0.00 | 0.00 | 0.00 | 27 | 1016.4 |
| 20260902225206 | 87 | 5 | 0.0 | 1.0 | 0.00 | 0.00 | 0.00 | 25 | 1016.4 |
| 20260902224205 | 87 | 5 | 0.0 | 0.0 | 0.00 | 0.00 | 0.00 | 27 | 1016.3 |
| 20260902223705 | 88 | 5 | 0.0 | 2.0 | 0.00 | 0.00 | 0.00 | 25 | 1016.4 |
| 20260902223205 | 88 | 4 | 1.0 | 3.0 | 0.00 | 0.00 | 0.00 | 26 | 1016.4 |
| 20260902222705 | 88 | 120 | 0.0 | 1.0 | 0.00 | 0.00 | 0.00 | 25 | 1016.3 |
| 20260902222205 | 89 | 32 | 1.0 | 8.0 | 0.00 | 0.00 | 0.00 | 23 | 1016.2 |
| 20260902221705 | 90 | 139 | 1.0 | 5.0 | 0.00 | 0.00 | 0.00 | 23 | 1016.2 |